Regional Weather Roundup
Issued by NWS Jackson, KY

Home | Current Version | Previous Version | Text Only | Print | Product List | Glossary On
Versions: 1 2 3 4 5 6 7 8 9 10 11 12 13 14 15 16 17 18 19 20 21 22 23 24 25 26 27 28 29 30 31 32 33 34 35 36 37 38 39 40 41 42 43 44 45 46 47 48 49 50
000
ASUS43 KJKL 290110
RWRJKL

EAST KENTUCKY HOURLY WEATHER ROUNDUP
NATIONAL WEATHER SERVICE JACKSON KY
900 PM EDT THU MAY 28 2015

NOTE: "FAIR" INDICATES FEW OR NO CLOUDS BELOW 12,000 FEET WITH
NO SIGNIFICANT WEATHER AND/OR OBSTRUCTIONS TO VISIBILITY.

* THESE REPORTS ARE NOT UNDER NWS QUALITY CONTROL AND MAY NOT
  REPORT WEATHER SUCH AS PRECIPITATION AND FOG.

KYZ079-080-083-085-087-088-110-112-115-119-120-290200
...EASTERN KENTUCKY...

CITY           SKY/WX    TMP DP  RH WIND       PRES   REMARKS
JACKSON        CLOUDY    74  66  76 CALM      30.20R
LONDON         LGT RAIN  73  65  75 CALM      30.19S
SOMERSET*      CLOUDY    68  66  94 CALM      30.20R
MONTICELLO*    PTCLDY    70  69  96 CALM      30.21R
MIDDLESBORO*   CLOUDY    73  68  87 W3        30.20R
HARLAN APT*    CLOUDY    70  63  78 MISG      30.22R
HAZARD APT*    LGT RAIN  73  68  83 CALM      30.21
PIKEVILLE APT* MOCLDY    73  68  83 CALM      30.22R
BIG SANDY*     MOCLDY    73  67  80 CALM      30.20R
MOREHEAD APT*  MOCLDY    73  68  83 CALM      30.20S
$$

KYZ035-036-041-042-044-050-067-078-099-290200
...CENTRAL KENTUCKY...

CITY           SKY/WX    TMP DP  RH WIND       PRES   REMARKS
MT STERLING*   MOCLDY    72  68  88 SW3       30.20R
FLEMING/MASON* CLOUDY    75  68  78 CALM      30.19R
DANVILLE*      CLOUDY    68  64  88 SW3       30.19S
RICHMOND*      CLOUDY    72  64  78 CALM      30.18S
LEXINGTON      MOCLDY    73  64  73 S6        30.18R
FRANKFORT      MOCLDY    73  65  75 S3        30.16R
$$

KYZ091>093-OHZ055-061-077-WVZ005-015-034-035-042-290200
...SOUTHERN OHIO/WEST VIRGINIA...

CITY           SKY/WX    TMP DP  RH WIND       PRES   REMARKS
COVINGTON      PTCLDY    74  63  68 CALM      30.16R
COLUMBUS       PTCLDY    77  61  57 E6        30.17R
DAYTON         PTCLDY    78  61  55 S6        30.16S
WILMINGTON     CLEAR     75  61  61 S5        30.17R
HUNTINGTON     PTCLDY    74  64  71 CALM      30.17R
CHARLESTON     PTCLDY    76  66  71 CALM      30.18R
PINEVILLE*     MOCLDY    70  68  93 MISG      30.28R
BECKLEY        CLOUDY    73  60  63 SE3       30.26R
BLUEFIELD      CLOUDY    71  58  63 S5        30.29F
$$

VAZ002-007-008-TNZ017-027-036-066-071-290200
...SOUTHWEST VIRGINIA/EAST TENNESSEE...

CITY           SKY/WX    TMP DP  RH WIND       PRES   REMARKS
WISE*          LGT RAIN  64  63  94 CALM      30.30S
JONESVILLE*    CLOUDY    73  68  83 E5        30.23R
ABINGDON*      CLOUDY    70  63  79 CALM      30.26S
BRISTOL        CLOUDY    69  65  86 CALM      30.22F
KNOXVILLE      CLOUDY    78  65  63 S6        30.17R
OAK RIDGE      CLOUDY    80  65  59 CALM      30.19R
CROSSVILLE     CLOUDY    71  59  65 S9G20     30.23R
NASHVILLE      MOCLDY    78  66  66 CALM      30.12S
$$

...KEY TO REMARKS...
VSB - VISIBILITY IN MILES
WCI - WIND CHILL INDEX
HX  - HEAT INDEX

$$



USA.gov is the U.S. government's official web portal to all federal, state and local government web resources and services.